Regional Weather Roundup
Issued by NWS Charleston, WV

Current Version | Previous Version | Text Only | Print | Product List | Glossary On
Versions: 1 2 3 4 5 6 7 8 9 10 11 12 13 14 15 16 17 18 19 20 21 22 23 24 25 26 27
000
ASUS41 KRLX 281510
RWRRLX
West Virginia Regional Weather Roundup
National Weather Service Charleston WV
1100 AM EDT FRI JUL 28 2017

Note: "fair" indicates few or no clouds below 12,000 feet with no
significant weather and/or obstructions to visibility.

WVZ003-281600-
Northern Panhandle of West Virginia

CITY           SKY/WX    TMP DP  RH WIND       PRES   REMARKS
WHEELING       CLOUDY    74  67  78 NE6       29.85F
$$

WVZ009-281600-
Northwest West Virginia

CITY           SKY/WX    TMP DP  RH WIND       PRES   REMARKS
PARKERSBURG    LGT RAIN  72  70  93 N6        29.85S VSB 1/2
$$

WVZ006-281600-
Western West Virginia

CITY           SKY/WX    TMP DP  RH WIND       PRES   REMARKS
HUNTINGTON     CLOUDY    74  70  87 CALM      29.84S
$$

WVZ015-281600-
West Central West Virginia

CITY           SKY/WX    TMP DP  RH WIND       PRES   REMARKS
CHARLESTON     LGT RAIN  73  70  90 CALM      29.85S FOG
$$

WVZ022-031-281600-
North Central West Virginia

CITY           SKY/WX    TMP DP  RH WIND       PRES   REMARKS
CLARKSBURG     CLOUDY    71  69  93 W3        29.85S FOG
MORGANTOWN     CLOUDY    72  68  87 CALM      29.87S FOG
$$

WVZ025-035-042-045-281600-
Southern West Virginia

CITY           SKY/WX    TMP DP  RH WIND       PRES   REMARKS
BECKLEY        CLOUDY    70  67  90 SW8       29.93F
LOGAN          CLOUDY    72  72 100 CALM      29.88F
BLUEFIELD      CLOUDY    67  65  93 SW7       29.97F
LEWISBURG      PTSUNNY   71  67  85 SW6       29.92F
$$

WVZ047-281600-
Northern Mountains of West Virginia

CITY           SKY/WX    TMP DP  RH WIND       PRES   REMARKS
ELKINS         CLOUDY    70  67  90 S3        29.89F
$$

WVZ052-281600-
Eastern Panhandle of West Virginia

CITY           SKY/WX    TMP DP  RH WIND       PRES   REMARKS
MARTINSBURG    LGT RAIN  72  69  90 W3        29.85S FOG
PETERSBURG     DRIZZLE   72  71  96 CALM      29.87S
$$




USA.gov is the U.S. government's official web portal to all federal, state and local government web resources and services.